Hourly Data Report for October 08, 2019

All times are specified in Local Standard Time (LST). Add 1 hour to adjust for Daylight Saving Time where and when it is observed.

SEPT-ILES
QUEBEC
Current Station Operator: ECCC - MSC

50°13'00.000" N
66°15'00.000" W
52.60 m
7047914
71279
XZV

Download Data

Hourly Data (October 2019)
Hourly Data Report for October 8, 2019
TIME Temp Definition
°C
Dew Point Definition
°C
Rel Hum Definition
%
Wind Dir Definition
10's deg

Wind Spd Definition
km/h
Visibility Definition
km
Stn Press Definition
kPa
Hmdx Definition


Wind Chill Definition


Weather Definition


00:00 8.4 7.3 93 25 7   100.48     LegendNANA
01:00 7.9 7.1 95 21 5   100.51     LegendNANA
02:00 8.1 7.2 94 33 4   100.45     LegendNANA
03:00 7.8 7.1 95 19 5   100.47     LegendNANA
04:00 7.6 6.9 95 24 10   100.51     LegendNANA
05:00 6.4 5.7 96   0   100.58     LegendNANA
06:00 3.9 3.5 97 34 3   100.65     LegendNANA
07:00 7.6 7.1 97 30 5   100.78     LegendNANA
08:00 10.7 7.4 80 28 10   100.88     LegendNANA
09:00 11.3 4.2 62 30 17   100.94     LegendNANA
10:00 10.8 2.8 58 32 21   101.04     LegendNANA
11:00 12.6 1.2 46 30 24   101.06     LegendNANA
12:00 13.0 0.5 42 33 22   101.11     LegendNANA
13:00 13.8 0.7 41 30 18   101.19     LegendNANA
14:00 12.4 -0.1 42 30 17   101.24     LegendNANA
15:00 12.5 -1.7 37 30 20   101.30     LegendNANA
16:00 11.6 -0.7 43 31 8   101.37     LegendNANA
17:00 10.0 0.0 50 30 5   101.47     LegendNANA
18:00 9.0 0.3 54 29 7   101.57     LegendNANA
19:00 5.0 -0.5 67 31 1   101.69     LegendNANA
20:00 2.5 -0.8 79 27 5   101.76     LegendNANA
21:00 2.3 -1.8 74 31 3   101.86     LegendNANA
22:00 2.0 -1.1 80 28 5   101.93     LegendNANA
23:00 4.4 -0.4 71 27 6   101.98     LegendNANA

Notes on Data Quality.

Legend

  • E = Estimated
  • M = Missing
  • NA = Not Available
Date modified: